PEGASUS DEB, 24091

Orbit data source: Space-Track

PEGASUS DEB, 24091 is space debris in LEO originally from a launch on Thu, 19 May 1994 UTC launched from the Air Force Western Test Range (AFWTR). Debris objects in space refer to the collection of defunct objects orbiting the Earth. Examples of debris include non-operational satellites, rocket bodies, and fragments generated from explosions, collisions, or faulty payload assembly.

Loading next visibility...
Identifier
24091, 1994-029EN
Orbit
LEO
Country
Flag of USUS
Related business
Manufacturer
Unknown
Mission
Spacecraft
Bus & Motor
Unknown
Mass
Unknown
Launch date (UTC)
1994-05-19 (32 years ago)
Launch vehicle
Unknown
Launch site
Air Force Western Test Range (AFWTR)
Object type
Payload
Rocket body
Debris
Shape & HBR
Unknown shape, 0.2 m
Radar Cross Section
Medium (>0.1 m² and <1 m²)

Expand to show TLE details & history
Last TLE update: 16 hours ago

TLE from 16 hours ago
0 PEGASUS DEB
1 24091U 94029EN  26207.62200310  .00004583  00000-0  28881-3 0  9991
2 24091  81.9920 335.0356 0063108  55.3921 317.3476 15.07229267636237
Epoch: 2026-07-26T14:55Z
TLE epoch observation values (Epoch: 2026-07-26T14:55:41.067Z)
Latitude
12.08178°
Longitude
168.5133°
Altitude
514.951 km
Speed
7.625 km/s
True Right ascension
22h 27m 00s
True Declination
12° 00' 33"
Sunlit
Object was in full shadow at epoch
Visualization orbit readout
Latitude
Unknown
Longitude
Unknown
Altitude
Unknown
Speed
Unknown
Apparent Right ascension
Unknown
Apparent Declination
Unknown
Sunlit
N/A
Visualization observer readout
Local Sidereal Time
19:54:53
Azimuth
Unknown
Elevation
Unknown
Doppler factor
Unknown
Orbital elements
Apogee altitude
585.35 km
Perigee altitude
498.011 km
Semi-major axis
6,919.817 km
Eccentricity
0.00631
Inclination
81.992°
RAAN
335.0356°
Arg. of periapsis
55.3921°
True anomaly
316.85477°
Mean anomaly
317.3476°
Eccentric anomaly
317.10147°
Mean motion
3.77052 °/min
Orbital period
95.48 mins
BSTAR
0.00028881
Loading maneuver chart data...
Computing Atmospheric mass density...
Loading historical data...
Loading historical data...
Loading historical data...
Loading historical data...
Loading historical data...
Loading historical data...
Loading historical data...

Documentation

Showing up to 5 results
|